Time,TemperatureF,DewpointF,PressureIn,WindDirection,WindDirectionDegrees,WindSpeedMPH,WindSpeedGustMPH,Humidity,HourlyPrecipIn,Conditions,Clouds,dailyrainin,SoftwareType,DateUTC
2013-10-15 00:04:00,70.0,66.0,29.96,ENE,71,0.0,0.0,86,0.00,,,0.00,,2013-10-15 04:04:00,
2013-10-15 00:14:00,70.0,66.0,29.96,ENE,71,0.0,0.0,86,0.00,,,0.00,,2013-10-15 04:14:00,
2013-10-15 00:24:00,70.0,66.0,29.96,ENE,71,0.0,0.0,86,0.00,,,0.00,,2013-10-15 04:24:00,
2013-10-15 00:54:00,68.0,64.0,29.94,ENE,71,0.0,0.0,86,0.00,,,0.00,,2013-10-15 04:54:00,
2013-10-15 01:03:00,68.0,64.0,29.94,ENE,71,0.0,0.0,86,0.00,,,0.00,,2013-10-15 05:03:00,
2013-10-15 01:22:00,68.0,64.0,29.94,ENE,71,0.0,0.0,86,0.00,,,0.00,,2013-10-15 05:22:00,
2013-10-15 01:42:00,67.0,63.0,29.94,ENE,71,0.0,0.0,86,0.00,,,0.00,,2013-10-15 05:42:00,
2013-10-15 01:52:00,67.0,63.0,29.94,ENE,71,0.0,0.0,86,0.00,,,0.00,,2013-10-15 05:52:00,
2013-10-15 02:22:00,67.0,63.0,29.93,ENE,71,0.0,0.0,86,0.00,,,0.00,,2013-10-15 06:22:00,
2013-10-15 02:43:00,66.0,62.0,29.93,ENE,71,0.0,0.0,86,0.00,,,0.00,,2013-10-15 06:43:00,
2013-10-15 02:52:00,66.0,62.0,29.92,ENE,71,0.0,0.0,86,0.00,,,0.00,,2013-10-15 06:52:00,
2013-10-15 03:22:00,66.0,62.0,29.92,ENE,71,0.0,0.0,86,0.00,,,0.00,,2013-10-15 07:22:00,
2013-10-15 03:53:00,66.0,62.0,29.91,ENE,71,0.0,0.0,86,0.00,,,0.00,,2013-10-15 07:53:00,
2013-10-15 04:02:00,66.0,62.0,29.91,ENE,71,0.0,0.0,86,0.00,,,0.00,,2013-10-15 08:02:00,
2013-10-15 04:22:00,68.0,63.0,29.91,ENE,71,0.0,0.0,85,0.00,,,0.00,,2013-10-15 08:22:00,
2013-10-15 04:32:00,68.0,63.0,29.91,ENE,71,0.0,0.0,85,0.00,,,0.00,,2013-10-15 08:32:00,
2013-10-15 04:42:00,68.0,63.0,29.91,ENE,71,0.0,0.0,85,0.00,,,0.00,,2013-10-15 08:42:00,
2013-10-15 04:52:00,69.0,64.0,29.90,ENE,71,0.0,0.0,85,0.00,,,0.00,,2013-10-15 08:52:00,
2013-10-15 05:12:00,69.0,64.0,29.90,ENE,71,0.0,0.0,85,0.00,,,0.00,,2013-10-15 09:12:00,
2013-10-15 05:22:00,69.0,64.0,29.90,ENE,71,0.0,0.0,85,0.00,,,0.00,,2013-10-15 09:22:00,
2013-10-15 05:53:00,69.0,64.0,29.91,ENE,71,0.0,0.0,85,0.00,,,0.00,,2013-10-15 09:53:00,
2013-10-15 06:23:00,69.0,64.0,29.91,NE,34,0.0,0.0,85,0.00,,,0.00,,2013-10-15 10:23:00,
2013-10-15 06:42:00,69.0,64.0,29.91,NE,34,0.0,1.0,85,0.00,,,0.00,,2013-10-15 10:42:00,
2013-10-15 06:53:00,68.0,63.0,29.92,NE,34,0.0,1.0,85,0.00,,,0.00,,2013-10-15 10:53:00,
2013-10-15 07:02:00,68.0,63.0,29.92,NE,34,0.0,1.0,85,0.00,,,0.00,,2013-10-15 11:02:00,
2013-10-15 07:22:00,68.0,63.0,29.92,NE,34,0.0,1.0,85,0.00,,,0.00,,2013-10-15 11:22:00,
2013-10-15 07:42:00,68.0,63.0,29.93,NE,34,0.0,0.0,85,0.00,,,0.00,,2013-10-15 11:42:00,
2013-10-15 07:52:00,68.0,63.0,29.93,NE,34,0.0,0.0,85,0.00,,,0.00,,2013-10-15 11:52:00,
2013-10-15 08:22:00,69.0,64.0,29.95,NW,319,0.0,1.0,85,0.00,,,0.00,,2013-10-15 12:22:00,
2013-10-15 08:32:00,69.0,64.0,29.95,NW,319,0.0,1.0,85,0.00,,,0.00,,2013-10-15 12:32:00,
2013-10-15 08:42:00,69.0,64.0,29.95,NW,319,0.0,1.0,85,0.00,,,0.00,,2013-10-15 12:42:00,
2013-10-15 08:52:00,70.0,65.0,29.96,North,355,0.0,1.0,85,0.00,,,0.00,,2013-10-15 12:52:00,
2013-10-15 09:11:00,70.0,65.0,29.96,North,355,0.0,1.0,85,0.00,,,0.00,,2013-10-15 13:11:00,
2013-10-15 09:21:00,72.0,68.0,29.96,ENE,63,0.0,4.0,86,0.00,,,0.00,,2013-10-15 13:21:00,
2013-10-15 09:42:00,73.0,69.0,29.96,ENE,67,1.0,4.0,86,0.00,,,0.00,,2013-10-15 13:42:00,
2013-10-15 09:52:00,75.0,70.0,29.96,NNW,337,0.0,1.0,84,0.00,,,0.00,,2013-10-15 13:52:00,
2013-10-15 10:12:00,76.0,70.0,29.96,NW,315,0.0,3.0,83,0.00,,,0.00,,2013-10-15 14:12:00,
2013-10-15 10:22:00,77.0,71.0,29.96,NNW,347,0.0,2.0,81,0.00,,,0.00,,2013-10-15 14:22:00,
2013-10-15 10:42:00,78.0,71.0,29.96,NE,38,1.0,3.0,79,0.00,,,0.00,,2013-10-15 14:42:00,
2013-10-15 10:52:00,80.0,72.0,29.96,NE,53,0.0,4.0,77,0.00,,,0.00,,2013-10-15 14:52:00,
2013-10-15 11:02:00,80.0,72.0,29.96,NE,53,0.0,4.0,77,0.00,,,0.00,,2013-10-15 15:02:00,
2013-10-15 11:22:00,83.0,73.0,29.95,NW,316,3.0,3.0,72,0.00,,,0.00,,2013-10-15 15:22:00,
2013-10-15 11:33:00,83.0,73.0,29.95,NW,316,3.0,3.0,72,0.00,,,0.00,,2013-10-15 15:33:00,
2013-10-15 11:44:00,83.0,73.0,29.95,NW,316,3.0,3.0,72,0.00,,,0.00,,2013-10-15 15:44:00,
2013-10-15 11:53:00,83.0,73.0,29.95,NW,316,3.0,3.0,72,0.00,,,0.00,,2013-10-15 15:53:00,
2013-10-15 12:23:00,85.0,71.0,29.94,NNE,19,0.0,6.0,63,0.00,,,0.00,,2013-10-15 16:23:00,
2013-10-15 12:42:00,86.0,71.0,29.93,NE,40,0.0,4.0,61,0.00,,,0.00,,2013-10-15 16:42:00,
2013-10-15 12:53:00,87.0,70.0,29.93,WNW,284,0.0,4.0,58,0.00,,,0.00,,2013-10-15 16:53:00,
2013-10-15 13:03:00,87.0,70.0,29.93,WNW,284,0.0,4.0,58,0.00,,,0.00,,2013-10-15 17:03:00,
2013-10-15 13:22:00,87.0,69.0,29.91,ENE,65,2.0,3.0,55,0.00,,,0.00,,2013-10-15 17:22:00,
2013-10-15 13:42:00,87.0,68.0,29.91,WNW,288,0.0,5.0,54,0.00,,,0.00,,2013-10-15 17:42:00,
2013-10-15 13:53:00,88.0,69.0,29.90,NNE,28,0.0,4.0,54,0.00,,,0.00,,2013-10-15 17:53:00,
2013-10-15 14:02:00,88.0,69.0,29.90,NNE,28,0.0,4.0,54,0.00,,,0.00,,2013-10-15 18:02:00,
2013-10-15 14:22:00,89.0,67.0,29.88,ENE,61,0.0,3.0,49,0.00,,,0.00,,2013-10-15 18:22:00,
2013-10-15 14:42:00,89.0,67.0,29.88,NNW,327,2.0,3.0,49,0.00,,,0.00,,2013-10-15 18:42:00,
2013-10-15 14:52:00,88.0,68.0,29.88,NE,45,0.0,4.0,51,0.00,,,0.00,,2013-10-15 18:52:00,
2013-10-15 15:22:00,89.0,67.0,29.87,North,360,0.0,5.0,49,0.00,,,0.00,,2013-10-15 19:22:00,
2013-10-15 15:42:00,89.0,67.0,29.86,ENE,70,2.0,3.0,49,0.00,,,0.00,,2013-10-15 19:42:00,
2013-10-15 15:52:00,89.0,67.0,29.86,NNW,346,0.0,1.0,48,0.00,,,0.00,,2013-10-15 19:52:00,
2013-10-15 16:02:00,90.0,68.0,29.86,NE,49,0.0,4.0,48,0.00,,,0.00,,2013-10-15 20:02:00,
2013-10-15 16:03:00,89.0,67.0,29.86,NNW,346,0.0,1.0,48,0.00,,,0.00,,2013-10-15 20:03:00,
2013-10-15 16:22:00,90.0,68.0,29.86,NE,49,0.0,4.0,48,0.00,,,0.00,,2013-10-15 20:22:00,
2013-10-15 16:32:00,90.0,68.0,29.86,NE,49,0.0,4.0,48,0.00,,,0.00,,2013-10-15 20:32:00,
2013-10-15 16:42:00,90.0,68.0,29.86,NE,49,0.0,4.0,48,0.00,,,0.00,,2013-10-15 20:42:00,
2013-10-15 16:52:00,90.0,68.0,29.86,NE,49,0.0,4.0,48,0.00,,,0.00,,2013-10-15 20:52:00,
2013-10-15 17:02:00,90.0,66.0,29.85,West,266,0.0,1.0,46,0.00,,,0.00,,2013-10-15 21:02:00,
2013-10-15 17:22:00,90.0,66.0,29.85,West,266,0.0,1.0,46,0.00,,,0.00,,2013-10-15 21:22:00,
2013-10-15 17:34:00,90.0,66.0,29.85,West,266,0.0,1.0,46,0.00,,,0.00,,2013-10-15 21:34:00,
2013-10-15 17:44:00,90.0,66.0,29.85,West,266,0.0,1.0,46,0.00,,,0.00,,2013-10-15 21:44:00,
2013-10-15 17:54:00,90.0,66.0,29.85,West,266,0.0,1.0,46,0.00,,,0.00,,2013-10-15 21:54:00,
2013-10-15 18:02:00,87.0,67.0,29.85,ENE,71,0.0,1.0,51,0.00,,,0.00,,2013-10-15 22:02:00,
2013-10-15 18:23:00,87.0,67.0,29.85,ENE,71,0.0,1.0,51,0.00,,,0.00,,2013-10-15 22:23:00,
2013-10-15 18:33:00,87.0,67.0,29.85,ENE,71,0.0,1.0,51,0.00,,,0.00,,2013-10-15 22:33:00,
2013-10-15 18:43:00,87.0,67.0,29.85,ENE,71,0.0,1.0,51,0.00,,,0.00,,2013-10-15 22:43:00,
2013-10-15 18:54:00,87.0,67.0,29.85,ENE,71,0.0,1.0,51,0.00,,,0.00,,2013-10-15 22:54:00,
2013-10-15 19:53:00,81.0,71.0,29.88,West,279,0.0,1.0,72,0.00,,,0.00,,2013-10-15 23:53:00,
2013-10-15 20:02:00,81.0,71.0,29.88,West,279,0.0,1.0,72,0.00,,,0.00,,2013-10-16 00:02:00,
2013-10-15 20:12:00,81.0,71.0,29.88,West,279,0.0,1.0,72,0.00,,,0.00,,2013-10-16 00:12:00,
2013-10-15 20:22:00,79.0,70.0,29.88,West,279,0.0,1.0,75,0.00,,,0.00,,2013-10-16 00:22:00,
2013-10-15 20:42:00,79.0,71.0,29.89,West,279,0.0,2.0,76,0.00,,,0.00,,2013-10-16 00:42:00,
2013-10-15 20:52:00,79.0,70.0,29.89,WNW,292,0.0,3.0,75,0.00,,,0.00,,2013-10-16 00:52:00,
2013-10-15 21:11:00,78.0,69.0,29.90,WNW,292,0.0,3.0,75,0.00,,,0.00,,2013-10-16 01:11:00,
2013-10-15 21:22:00,78.0,69.0,29.90,WNW,292,0.0,3.0,75,0.00,,,0.00,,2013-10-16 01:22:00,
2013-10-15 21:32:00,78.0,69.0,29.90,WNW,292,0.0,3.0,75,0.00,,,0.00,,2013-10-16 01:32:00,
2013-10-15 21:52:00,74.0,68.0,29.93,WNW,292,0.0,1.0,82,0.00,,,0.00,,2013-10-16 01:52:00,
2013-10-15 21:53:00,75.0,69.0,29.92,WNW,292,0.0,0.0,81,0.00,,,0.00,,2013-10-16 01:53:00,
2013-10-15 22:22:00,74.0,68.0,29.93,WNW,292,0.0,1.0,82,0.00,,,0.00,,2013-10-16 02:22:00,
2013-10-15 22:32:00,74.0,68.0,29.93,WNW,292,0.0,1.0,82,0.00,,,0.00,,2013-10-16 02:32:00,
2013-10-15 22:42:00,74.0,68.0,29.93,WNW,292,0.0,1.0,82,0.00,,,0.00,,2013-10-16 02:42:00,
2013-10-15 23:45:00,71.0,66.0,29.93,WNW,292,0.0,0.0,85,0.00,,,0.00,,2013-10-16 03:45:00,
2013-10-15 23:55:00,71.0,66.0,29.93,WNW,292,0.0,0.0,85,0.00,,,0.00,,2013-10-16 03:55:00,